OneWeb SL0559

operational
NORAD ID: 56060 Int'l Des: 2023-043 Owner: ONEWEBN Country: UK Constellation: oneweb
LEOCIRCULARPOLARONEWEB_TYPE

About OneWeb SL0559

Description loading...

Live Position

Loading 3D Globe...

Upcoming Passes

Altitude History

Altitude vs Time

uPlot chart will show altitude changes over time

Two-Line Element Set

1 56060U 23043Q 25258.04808597 .00000067 00000-0 12984-3 0 9992
2 56060 87.9203 298.8862 0001563 91.2639 268.8674 13.21826995121906
Epoch: Sep 15, 2025 • Age: 12 hours

Current Status

Altitude 1207.7 km
Velocity 7.25 km/s
Sub-Earth Point -87.43°S, 23.61°W
Launch Date Mar 26, 2023
Age 2.4 years
Type internet

Technical Details

Classification Payload
Mass 148.00 kg
Dry Mass 140.00 kg
Total Mass 148.00 kg
Length 1.30 m
Diameter 1.00 m
Span 5.00 m
Shape Trapezoid+2 pan
Manufacturer ONEWUS
Bus Type ARROW
Phase Status In Orbit
Owner/State ONEWEBN/UK

Large Constellations

Loading constellations...